Home   Weather   Trebišov   Past weeks
Flag for Slovakia

Past Weather in Trebišov, Slovakia — Yesterday and Last 2 Weeks

Now
71 °F

Scattered clouds.


Feels Like: 77 °F
Forecast: 71 / 47 °F
Wind: 3 mph from South

Location: Milhostov

Current Time: Oct 21, 2019 at 5:59:05 pm

Latest Report: Oct 21, 2019 at 5:00 pm


Visibility: 9 mi

Pressure: 30.15 "Hg

Humidity: 51%

Dew Point: 52 °F

Location of TrebišovLocation

Past Weather in Trebišov — Graph

°F

Trebišov Temperature Yesterday

Maximum temperature yesterday: 73 °F (at 3:00 pm)
Minimum temperature yesterday: 42 °F (at 7:00 am)
Average temperature yesterday: 55 °F

High & Low Weather Summary for the Past Weeks

 TemperatureHumidityPressure
High74 °F (Oct 16, 3:00 pm)100% (Oct 16, 8:00 am)30.27 "Hg (Oct 16, 8:00 am)
Low29 °F (Oct 8, 7:00 am)40% (Oct 7, 2:00 pm)29.85 "Hg (Oct 10, 1:00 am)
Average53 °F76%30.10 "Hg
* Reported Oct 6 4:00 pm — Oct 21 4:00 pm, Trebišov. Weather by CustomWeather, © 2019

Note: Actual official high and low records may vary slightly from our data, if they occured in-between our weather recording intervals... More about our weather records

Advertising

Trebišov Weather History for the Previous 24 Hours

Scroll right to see more
 ConditionsComfort  
Time TempWeatherWind HumidityBarometerVisibility
4:00 pm
Mon, Oct 21
74 °FScattered clouds.6 mph47%30.15 "Hg9 mi
3:00 pm74 °FScattered clouds.7 mph46%30.15 "Hg9 mi
2:00 pm73 °FScattered clouds.6 mph46%30.16 "Hg7 mi
1:00 pm71 °FScattered clouds.6 mph51%30.17 "Hg9 mi
12:00 pm65 °FScattered clouds.N/A63%30.18 "Hg6 mi
11:00 am60 °FScattered clouds.2 mph71%30.19 "Hg6 mi
10:00 am55 °FScattered clouds.2 mph81%30.20 "Hg7 mi
9:00 am51 °FFog.2 mph93%30.19 "Hg2 mi
8:00 am46 °FFog.1 mph100%30.19 "Hg2 mi
7:00 am45 °FCool.N/A100%30.17 "HgN/A
6:00 am44 °FQuite cool.No wind99%30.17 "HgN/A
5:00 am44 °FQuite cool.N/A98%30.16 "HgN/A
4:00 am43 °FQuite cool.No wind98%30.15 "HgN/A
3:00 am44 °FQuite cool.1 mph96%30.14 "HgN/A
2:00 am47 °FCool.N/A97%30.13 "HgN/A
1:00 am46 °FCool.No wind92%30.13 "HgN/A
12:00 am47 °FCool.N/A94%30.12 "HgN/A
11:00 pm
Sun, Oct 20
48 °FCool.1 mph92%30.12 "HgN/A
10:00 pm50 °FClear.N/A83%30.11 "Hg9 mi
9:00 pm54 °FClear.N/A83%30.10 "Hg7 mi
8:00 pm54 °FClear.N/A81%30.10 "Hg12 mi
7:00 pm60 °FPassing clouds.N/A73%30.09 "Hg12 mi
6:00 pm63 °FPassing clouds.1 mph66%30.08 "Hg12 mi
5:00 pm69 °FPassing clouds.2 mph54%30.07 "Hg12 mi
Weather by CustomWeather, © 2019

See weather overview